Stations météo

réclame
Mon MeteoGroup
Falsterbo A, Suède (2615): Température de l'air & dewpoint: 10.01.2018 10:00:00 - 16.01.2018 10:00:00 (CET)Falsterbo A, Suède (2615): Vitesse du vent & gusts: 10.01.2018 10:00:00 - 16.01.2018 10:00:00 (CET)Falsterbo A, Suède (2615): Direction du vent: 10.01.2018 10:00:00 - 16.01.2018 10:00:00 (CET)Falsterbo A, Suède (2615): reduced air pressure: 10.01.2018 10:00:00 - 16.01.2018 10:00:00 (CET)Falsterbo A, Suède (2615): visibility: 10.01.2018 10:00:00 - 16.01.2018 10:00:00 (CET)Falsterbo A, Suède (2615): Quantités de précipitations: 10.01.2018 10:00:00 - 16.01.2018 10:00:00 (CET)
Date & Time tt [°C] td [°C] ff [km/h] ff [knt] fx [km/h] fx [knt] dd ppp [hPa] vv [km] rr [mm]
16.01.2018 10:00:00 4,1 2,9 33 18 46 25 SSW 985,2 38 0,0
16.01.2018 09:00:00 4,1 3,4 36 20 50 27 SSW 984,7 20 0,0
16.01.2018 08:00:00 4,0 3,6 37 20 54 29 SSW 984,5 13 0,0
16.01.2018 07:00:00 3,5 3,1 46 25 69 37 S 984,3 10 0,2
16.01.2018 06:00:00 2,9 2,5 55 30 78 42 S 984,5 11 0,3
16.01.2018 05:00:00 2,2 1,8 59 32 80 43 S 985,0 9 0,7
16.01.2018 04:00:00 2,1 1,4 60 32 81 44 SSE 986,1 10 0,1
16.01.2018 03:00:00 1,9 1,0 63 34 85 46 SSE 987,5 10 0,1
16.01.2018 02:00:00 1,9 0,7 63 34 84 45 SSE 989,2 12 0,0
16.01.2018 01:00:00 2,3 0,5 59 32 81 44 SSE 991,0 21 0,0
16.01.2018 00:00:00 2,3 0,5 57 31 78 42 SSE 993,0 19 0,0
15.01.2018 23:00:00 2,4 0,1 58 31 77 42 SSE 994,7 22 0,0
15.01.2018 22:00:00 2,6 0,2 56 31 74 40 SSE 996,5 23 0,0
15.01.2018 21:00:00 2,3 0,4 57 31 76 41 SSE 998,2 19 0,1
15.01.2018 20:00:00 2,3 -0,1 58 31 80 43 SSE 999,9 18 0,0
15.01.2018 19:00:00 2,4 -0,5 55 30 76 41 SSE 1001,4 25 0,0
15.01.2018 18:00:00 2,3 -0,6 55 30 77 42 SSE 1002,8 24 0,0
15.01.2018 17:00:00 2,3 -0,6 54 29 73 39 SSE 1004,8 22 0,0
15.01.2018 16:00:00 1,8 -1,1 53 28 67 36 SSE 1006,0 20 0,0
15.01.2018 15:00:00 1,6 -1,0 44 24 61 33 SSE 1007,6 19 0,0
15.01.2018 14:00:00 1,1 -1,6 46 25 64 35 SSE 1009,3 20 0,0
15.01.2018 13:00:00 1,1 -1,5 49 26 68 37 SSE 1010,9 22 0,0
15.01.2018 12:00:00 1,0 -1,9 50 27 67 36 SSE 1012,8 24 0,0
15.01.2018 11:00:00 1,1 -1,8 48 26 67 36 SSE 1014,3 27 0,0
15.01.2018 10:00:00 0,8 -1,9 50 27 64 35 SSE 1015,8 26 0,0
15.01.2018 09:00:00 0,5 -2,2 45 24 69 38 SSE 1016,9 22 0,0
15.01.2018 08:00:00 0,3 -2,2 45 24 60 33 SSE 1017,8 24 0,0
15.01.2018 07:00:00 0,2 -2,2 43 23 57 31 SSE 1019,2 23 0,0
15.01.2018 06:00:00 0,0 -2,2 43 23 55 30 SSE 1020,1 20 0,0
15.01.2018 05:00:00 -0,1 -2,3 40 21 51 28 SSE 1021,4 19 0,0
15.01.2018 04:00:00 0,1 -2,1 40 22 53 29 SSE 1022,0 20 0,0
15.01.2018 03:00:00 -0,1 -2,6 38 20 52 28 SSE 1023,1 22 0,0
15.01.2018 02:00:00 -0,3 -3,0 36 19 46 25 SSE 1024,3 27 0,0
15.01.2018 01:00:00 -0,6 -3,1 33 18 44 24 S 1025,2 27 0,0
15.01.2018 00:00:00 -1,1 -4,1 33 18 44 24 SSE 1026,2 38 0,0
14.01.2018 23:00:00 -1,0 -4,3 29 16 41 22 SSE 1026,9 42 0,0
14.01.2018 22:00:00 -1,0 -4,5 30 16 43 23 SSE 1027,2 15 0,0
14.01.2018 21:00:00 -1,2 -4,7 28 15 43 23 SSE 1027,9 34 0,0
14.01.2018 20:00:00 -1,3 -4,6 26 14 41 22 SE 1028,3 50 0,0
14.01.2018 19:00:00 -1,3 -4,6 28 15 39 21 SE 1028,6 44 0,0
14.01.2018 18:00:00 -1,2 -4,5 25 13 38 20 SE 1029,5 50 0,0
14.01.2018 17:00:00 -1,2 -4,5 30 16 39 21 ESE 1029,8 50 0,0
14.01.2018 16:00:00 -0,9 -4,4 25 13 38 20 SE 1030,0 49 0,0
14.01.2018 15:00:00 -0,8 -4,2 28 15 39 21 SE 1030,5 44 0,0
14.01.2018 14:00:00 -0,4 -3,8 32 17 40 21 SE 1030,5 49 0,0
14.01.2018 13:00:00 0,0 -3,2 29 15 37 20 SE 1031,0 47 0,0
14.01.2018 12:00:00 0,0 -3,9 28 15 37 20 SE 1031,4 49 0,0
14.01.2018 11:00:00 0,2 -3,4 26 14 37 20 SE 1031,9 47 0,0
14.01.2018 10:00:00 0,1 -3,6 27 14 39 21 ESE 1032,1 45 0,0
14.01.2018 09:00:00 0,3 -3,4 24 13 40 22 SE 1032,1 50 0,0
14.01.2018 08:00:00 0,3 -3,4 23 13 40 22 SE 1032,1 50 0,0
14.01.2018 07:00:00 0,5 -3,2 27 15 37 20 SE 1032,1 45 0,0
14.01.2018 06:00:00 0,6 -3,3 27 14 38 21 SE 1032,2 47 0,0
14.01.2018 05:00:00 0,6 -3,5 25 14 35 19 SE 1032,3 50 0,0
14.01.2018 04:00:00 0,5 -4,2 23 12 35 19 SE 1032,7 50 0,0
14.01.2018 03:00:00 0,6 -3,7 25 13 38 20 SE 1032,8 50 0,0
14.01.2018 02:00:00 0,7 -3,4 26 14 39 21 SE 1033,3 50 0,0
14.01.2018 01:00:00 0,5 -4,1 29 16 43 23 ESE 1033,5 50 0,0
14.01.2018 00:00:00 0,9 -3,8 29 16 42 23 ESE 1033,7 50 0,0
13.01.2018 23:00:00 1,0 -3,5 29 16 45 24 SE 1033,9 50 0,0
13.01.2018 22:00:00 0,9 -3,8 29 16 43 23 ESE 1034,0 50 0,0
13.01.2018 21:00:00 0,8 -3,7 29 16 45 24 SE 1034,2 50 0,0
13.01.2018 20:00:00 0,4 -3,9 33 18 52 28 SE 1034,5 50 0,0
13.01.2018 19:00:00 0,4 -3,7 33 18 45 24 ESE 1034,7 50 0,0
13.01.2018 18:00:00 0,6 -3,3 30 16 46 25 ESE 1034,7 50 0,0
13.01.2018 17:00:00 0,7 -3,4 29 16 41 22 ESE 1034,6 48 0,0
13.01.2018 16:00:00 0,8 -3,5 27 15 38 21 SE 1034,5 50 0,0
13.01.2018 15:00:00 1,3 -2,5 28 15 37 20 SE 1034,6 50 0,0
13.01.2018 14:00:00 1,7 -2,3 25 14 37 20 SE 1034,7 50 0,0
13.01.2018 13:00:00 1,8 -1,5 28 15 41 22 SE 1035,0 43 0,0
13.01.2018 12:00:00 1,9 -0,8 31 17 44 24 SE 1035,1 50 0,0
13.01.2018 11:00:00 1,9 -0,8 34 18 47 25 ESE 1035,2 45 0,0
13.01.2018 10:00:00 2,0 -1,3 32 17 48 26 ESE 1035,2 50 0,0
13.01.2018 09:00:00 2,0 -1,4 32 18 46 25 ESE 1034,8 50 0,0
13.01.2018 08:00:00 2,0 -1,3 33 18 51 28 ESE 1034,5 50 0,0
13.01.2018 07:00:00 2,1 -0,3 35 19 51 27 ESE 1034,5 38 0,0
13.01.2018 06:00:00 2,1 -0,2 33 18 50 27 ESE 1034,3 32 0,0
13.01.2018 05:00:00 1,9 -0,4 35 19 52 28 ESE 1034,3 50 0,0
13.01.2018 04:00:00 2,0 -0,1 36 19 48 26 ESE 1034,6 41 0,0
13.01.2018 03:00:00 2,0 -0,1 35 19 47 26 ESE 1034,8 47 0,0
13.01.2018 02:00:00 2,2 -0,2 34 18 46 25 ESE 1034,7 44 0,0
13.01.2018 01:00:00 1,6 -0,6 27 15 44 24 ENE 1034,7 50 0,0
13.01.2018 00:00:00 1,9 -0,7 29 16 48 26 E 1034,7 50 0,0
12.01.2018 23:00:00 2,2 -0,6 34 19 49 26 E 1034,7 50 0,0
12.01.2018 22:00:00 2,4 -0,5 37 20 47 26 E 1034,7 50 0,0
12.01.2018 21:00:00 2,4 -0,5 33 18 50 27 E 1034,5 43 0,0
12.01.2018 20:00:00 2,2 -0,6 36 19 51 28 E 1034,3 45 0,0
12.01.2018 19:00:00 2,2 -0,6 39 21 50 27 E 1033,9 50 0,0
12.01.2018 18:00:00 1,9 -0,7 31 17 47 25 E 1033,9 44 0,0
12.01.2018 17:00:00 1,9 -0,7 29 16 43 23 ENE 1033,6 38 0,0
12.01.2018 16:00:00 2,0 -0,6 28 15 42 23 ENE 1033,3 44 0,0
12.01.2018 15:00:00 2,1 -0,5 28 15 41 22 ENE 1033,3 48 0,0
12.01.2018 14:00:00 2,2 -0,4 25 14 39 21 ENE 1033,2 50 0,0
12.01.2018 13:00:00 2,4 -0,4 28 15 50 27 E 1032,9 50 0,0
12.01.2018 12:00:00 2,5 -0,1 35 19 49 26 E 1032,7 46 0,0
12.01.2018 11:00:00 2,6 0,0 31 17 52 28 E 1032,6 44 0,0
12.01.2018 10:00:00 2,7 -0,2 39 21 49 26 E 1032,0 50 0,0
12.01.2018 09:00:00 2,2 -0,7 32 17 48 26 E 1031,2 50 0,0
12.01.2018 08:00:00 2,3 -0,3 29 16 48 26 ENE 1030,5 50 0,0
12.01.2018 07:00:00 2,8 0,2 32 17 56 30 E 1029,8 50 0,0
12.01.2018 06:00:00 2,7 -0,1 36 20 54 29 E 1029,4 50 0,0
12.01.2018 05:00:00 2,2 -0,1 29 16 57 31 E 1029,1 40 0,0
12.01.2018 04:00:00 2,3 0,0 36 19 55 30 E 1028,6 48 0,0
12.01.2018 03:00:00 2,3 0,0 30 16 44 24 E 1027,9 32 0,0
12.01.2018 02:00:00 2,3 -0,1 27 15 47 26 ENE 1027,6 38 0,0
12.01.2018 01:00:00 2,6 0,3 29 16 54 29 ENE 1027,1 47 0,0
12.01.2018 00:00:00 2,9 0,5 36 19 52 28 E 1026,4 32 0,0
11.01.2018 23:00:00 2,8 0,7 35 19 50 27 E 1025,6 39 0,0
11.01.2018 22:00:00 2,8 0,5 40 22 52 28 E 1024,9 28 0,0
11.01.2018 21:00:00 2,7 0,9 39 21 52 28 E 1024,3 23 0,0
11.01.2018 20:00:00 2,5 1,5 39 21 52 28 E 1023,7 11 0,0
11.01.2018 19:00:00 2,8 1,2 35 19 52 28 E 1022,8 27 0,0
11.01.2018 18:00:00 3,2 1,2 36 20 50 27 E 1022,3 38 0,0
11.01.2018 17:00:00 3,5 1,7 31 17 46 25 E 1021,7 38 0,0
11.01.2018 16:00:00 3,7 2,4 29 16 49 26 E 1021,1 26 0,0
11.01.2018 15:00:00 3,8 2,3 30 16 45 25 ENE 1020,3 29 0,0
11.01.2018 14:00:00 3,9 2,3 29 16 43 23 E 1019,7 28 0,0
11.01.2018 13:00:00 4,0 2,7 28 15 40 22 E 1019,5 22 0,0
11.01.2018 12:00:00 4,0 2,8 24 13 36 19 ENE 1019,3 15 0,0
11.01.2018 11:00:00 4,0 3,3 26 14 38 21 ENE 1019,1 13 0,0
11.01.2018 10:00:00 3,7 3,3 23 12 32 17 ENE 1018,7 9 0,0
11.01.2018 09:00:00 3,7 3,3 16 9 25 13 ENE 1018,1 7 0,4
11.01.2018 08:00:00 3,6 3,2 16 9 29 15 ENE 1017,5 4,7 0,3
11.01.2018 07:00:00 3,6 3,2 17 9 29 16 ENE 1016,7 4,1 0,0
11.01.2018 06:00:00 3,7 3,1 18 10 27 15 ENE 1016,5 3,0 0,0
11.01.2018 05:00:00 4,1 3,5 21 11 33 18 E 1016,3 6 0,0
11.01.2018 04:00:00 4,2 3,6 24 13 33 18 E 1016,2 4,8 0,0
11.01.2018 03:00:00 4,2 3,6 27 15 37 20 E 1016,0 7 0,0
11.01.2018 02:00:00 4,3 3,7 28 15 36 20 E 1015,5 10 0,0
11.01.2018 01:00:00 3,9 3,4 24 13 34 18 E 1015,4 7 0,0
11.01.2018 00:00:00 4,1 3,5 23 13 34 19 E 1015,3 10 0,0
10.01.2018 23:00:00 4,1 3,5 26 14 35 19 E 1014,9 8 0,0
10.01.2018 22:00:00 4,4 3,8 24 13 32 17 E 1014,8 7 0,0
10.01.2018 21:00:00 4,4 3,5 22 12 32 17 ESE 1014,6 9 0,0
10.01.2018 20:00:00 4,4 3,4 23 12 31 17 E 1014,4 11 0,0
10.01.2018 19:00:00 4,3 3,3 21 11 28 15 ESE 1014,5 11 0,0
10.01.2018 18:00:00 4,4 3,4 25 13 33 18 ESE 1014,2 11 0,0
10.01.2018 17:00:00 4,4 3,4 26 14 47 25 SE 1014,1 9 0,0
10.01.2018 16:00:00 4,3 3,6 27 15 36 19 ESE 1013,8 7 0,0
10.01.2018 15:00:00 4,2 3,6 25 13 32 18 ESE 1013,7 5 0,0
10.01.2018 14:00:00 4,1 3,5 22 12 29 16 ESE 1013,3 2,9 0,0
10.01.2018 13:00:00 4,1 3,7 16 9 - - SE 1013,5 6 0,0
10.01.2018 12:00:00 4,0 3,4 22 12 34 19 SE 1013,9 4,6 0,1
10.01.2018 11:00:00 3,9 3,3 27 15 42 23 SE 1013,7 6 0,0
10.01.2018 10:00:00 3,6 3,0 34 19 44 24 ESE 1013,5 6 0,8

tt = Température de l'air
td = dewpoint
ff = Vitesse du vent
fx = gusts
dd = Direction du vent
ppp = reduced air pressure
vv = visibility
rr = Quantités de précipitations

stations d'obs. à proximité